Probability
0 0 0 0 0 0 0 0 0 0 0 0 0 1 2 5 7 7 6 6 6 5 4 4 3 2 1 0 0 0 0 0 0 0 0 0 0 0 0 0 0 0 0 0
0 0 0 0 0 0 0 0 0 0 0 0 0 0 1 3 4 5 4 3 2 2 2 1 1 1 0 0 0 0 0 0 0 0 0 0 0 0 0 0 0 0 0 0
0 0 0 0 0 0 0 0 0 0 0 1 0 0 0 1 2 3 3 2 0 0 0 0 0 0 0 0 0 0 0 0 0 0 0 0 0 0 0 0 0 0 0 0
0 0 0 0 0 0 0 0 0 0 0 0 0 0 0 0 1 2 2 1 0 0 0 0 0 0 0 0 0 0 0 0 0 0 0 0 0 0 0 0 0 0 0 0
0 0 0 0 0 0 0 0 0 0 0 0 0 0 0 0 0 1 1 1 0 0 0 0 0 0 0 0 0 0 0 0 0 0 0 0 0 0 0 0 0 0 0 0
0 0 0 0 0 0 0 0 0 0 0 0 0 0 0 0 0 0 0 0 0 0 0 0 0 0 0 0 0 0 0 0 0 0 0 0 0 0 0 0 0 0 0 0
0 0 0 0 0 0 0 0 0 0 0 0 0 0 0 0 0 0 0 0 0 0 0 0 0 0 0 0 0 0 0 0 0 0 0 0 0 0 0 0 0 0 0 0
0 0 0 0 0 0 0 0 0 0 0 0 0 0 0 0 0 0 0 0 0 0 0 0 0 0 0 0 0 0 0 0 0 0 0 0 0 0 0 0 0 0 0 0
0 0 0 0 0 0 0 0 0 0 0 0 0 0 0 0 0 0 0 0 0 0 0 0 0 0 0 0 0 0 0 0 0 0 0 0 0 0 0 0 0 0 0 0
0 0 0 0 0 0 0 0 0 0 0 0 0 0 0 0 0 0 0 0 0 0 0 0 0 0 0 0 0 0 0 0 0 0 0 0 0 0 0 0 0 0 0 0
0 0 0 0 0 0 0 0 0 0 0 0 0 0 0 0 0 0 0 0 0 0 0 0 0 0 0 0 0 0 0 0 0 0 0 0 0 0 0 0 0 0 0 0
0 0 0 0 0 0 0 0 0 0 0 0 0 0 0 0 0 0 0 0 0 0 0 0 0 0 0 0 0 0 0 0 0 0 0 0 0 0 0 0 0 0 0 0
0 0 0 0 0 0 0 0 0 0 0 0 0 0 0 0 0 0 0 0 0 0 0 0 0 0 0 0 0 0 0 0 0 0 0 0 0 0 0 0 0 0 0 0
0 0 0 0 0 0 0 0 0 0 0 0 0 0 0 0 0 0 0 0 0 0 0 0 0 0 0 0 0 0 0 0 0 0 0 0 0 0 0 0 0 0 0 0
0 0 0 0 0 0 0 0 0 0 0 0 0 0 0 0 0 0 0 0 0 0 0 0 0 0 0 0 0 0 0 0 0 0 0 0 0 0 0 0 0 0 0 0
0 0 0 0 0 0 0 0 0 0 0 0 0 0 0 0 0 0 0 0 0 0 0 0 0 0 0 0 0 0 0 0 0 0 0 0 0 0 0 0 0 0 0 0
0 0 0 0 0 0 0 0 0 0 0 0 0 0 0 0 0 0 0 0 0 0 0 0 0 0 0 0 0 0 0 0 0 0 0 0 0 0 0 0 0 0 0 0
0 0 0 0 0 0 0 0 0 0 0 0 0 0 0 0 0 0 0 0 0 0 0 0 0 0 0 0 0 0 0 0 0 0 0 0 0 0 0 0 0 0 0 0
0 0 0 0 0 0 0 0 0 0 0 0 0 0 0 0 0 0 0 0 0 0 0 0 0 0 0 0 0 0 0 0 0 0 0 0 0 0 0 0 0 0 0 0
0 0 0 0 0 0 0 0 0 0 0 0 0 0 0 0 0 0 0 0 0 0 0 0 0 0 0 0 0 0 0 0 0 0 0 0 0 0 0 0 0 0 0 0
0 0 0 0 0 0 0 0 0 0 0 0 0 0 0 0 0 0 0 0 0 0 0 0 0 0 0 0 0 0 0 0 0 0 0 0 0 0 0 0 0 0 0 0
0 0 0 0 0 0 0 0 0 0 0 0 0 0 0 0 0 0 0 0 0 0 0 0 0 0 0 0 0 0 0 0 0 0 0 0 0 0 0 0 0 0 0 0
0 0 0 0 0 0 0 0 0 0 0 0 0 0 0 0 0 0 0 0 0 0 0 0 0 0 0 0 0 0 0 0 0 0 0 0 0 0 0 0 0 0 0 0
0 0 0 0 0 0 0 0 0 0 0 0 0 0 0 0 0 0 0 0 0 0 0 0 0 0 0 0 0 0 0 0 0 0 0 0 0 0 0 0 0 0 0 0
0 0 0 0 0 0 0 0 0 0 0 0 0 0 0 0 0 0 0 0 0 0 0 0 0 0 0 0 0 0 0 0 0 0 0 0 0 0 0 0 0 0 0 0
0 0 0 0 0 0 0 0 0 0 0 0 0 0 0 0 0 0 0 0 0 0 0 0 0 0 0 0 0 0 0 0 0 0 0 0 0 0 0 0 0 0 0 0
Wind_Speed
2 2 4 8 8 6 3 1 1 1 1 4 5 4 2 2 2 2 2 2 4 3 3 3 3 3 3 3 4 4 4 3 3 2 2 2 1 0 0 1 1 1 1 1
2 4 8 4 3 4 3 1 1 1 3 4 4 2 1 0 1 2 2 2 3 2 2 2 2 2 2 3 3 3 4 4 3 2 2 2 2 1 1 1 1 2 2 2
6 7 2 1 2 3 2 3 3 4 3 5 2 2 1 1 1 1 1 2 3 5 5 4 3 2 2 3 3 3 3 3 2 2 2 2 2 2 1 1 2 2 2 2
5 4 1 1 2 3 2 2 3 5 4 3 3 1 3 2 2 2 2 2 3 3 3 4 4 4 4 4 3 2 2 1 1 1 1 2 2 1 2 2 2 3 3 3
4 1 1 2 2 3 3 4 6 5 5 3 4 1 5 1 2 4 4 4 5 4 4 5 5 5 4 3 2 2 1 0 0 0 1 1 1 2 2 2 3 4 4 4
4 2 2 1 2 4 6 6 6 6 5 3 2 1 4 3 4 4 3 4 5 4 4 4 4 3 2 2 2 2 2 1 1 1 1 1 3 3 3 4 3 3 3 4
5 3 1 2 3 3 4 6 5 5 4 2 1 1 7 5 5 5 5 5 5 4 4 4 4 3 3 3 2 2 2 2 2 1 2 2 3 3 4 4 4 4 3 3
1 5 3 1 3 4 3 6 6 3 3 3 2 3 7 4 4 4 5 4 3 4 4 4 4 4 3 3 2 2 2 2 1 1 2 2 2 2 3 4 4 4 4 5
4 4 3 1 1 6 5 3 5 7 2 2 4 5 7 2 2 2 3 3 4 4 4 4 3 2 2 2 2 2 2 2 2 2 2 3 3 3 4 5 4 4 5 5
6 3 3 2 3 4 4 7 5 5 4 1 4 4 5 4 4 3 4 5 5 3 3 2 1 2 1 1 1 0 1 1 2 2 2 2 3 4 4 4 5 5 5 5
3 3 3 3 1 1 3 4 6 5 4 5 2 7 7 7 6 5 5 4 4 4 3 2 1 1 1 0 0 0 1 1 2 3 3 3 4 4 4 4 6 5 5 6
3 5 1 3 3 1 2 4 7 5 3 4 4 9 5 5 6 5 4 3 3 3 3 2 2 1 0 1 1 2 2 2 3 3 3 4 4 4 5 6 6 6 6 6
6 6 3 7 7 3 1 3 4 6 5 4 4 8 3 0 2 3 3 3 3 3 3 2 1 1 2 2 3 3 3 3 4 3 3 4 5 5 6 6 6 6 6 7
7 5 6 6 7 4 3 3 5 6 4 5 7 7 5 3 3 3 3 3 3 3 3 2 2 3 3 3 3 4 4 4 4 3 4 5 6 6 6 6 6 6 6 7
5 4 4 6 5 3 5 5 6 6 7 8 7 7 9 7 6 5 4 4 4 4 4 4 4 3 3 4 4 4 4 4 3 4 5 6 6 6 6 6 7 7 7 8
3 4 2 3 2 3 4 6 5 5 4 5 3 7 6 3 3 4 5 6 6 6 6 5 5 4 4 4 4 4 5 4 3 4 6 6 6 6 7 7 7 7 8 8
4 6 4 3 4 2 4 5 4 4 4 7 7 7 3 4 7 7 8 7 8 7 6 6 6 5 5 5 4 5 5 4 4 5 6 6 6 7 8 8 8 8 8 7
8 6 4 1 2 3 9 4 4 3 4 5 5 4 6 6 4 4 6 8 8 7 7 6 5 5 4 4 4 4 4 4 5 6 7 7 7 8 8 8 8 8 7 7
5 8 5 4 2 5 8 3 5 5 4 5 6 5 3 3 3 3 6 8 8 8 7 6 5 4 4 5 4 4 4 5 5 6 7 7 7 8 8 9 9 8 7 8
5 5 6 4 4 5 9 4 4 4 5 6 7 7 6 7 3 7 7 8 8 7 5 5 4 3 4 5 3 3 5 5 6 7 7 8 7 8 9 9 9 7 7 8
2 3 3 4 4 9 8 3 6 4 10 6 10 9 10 10 10 6 4 7 7 6 6 5 4 4 5 4 2 4 5 6 7 7 7 8 7 8 8 8 7 8 7 8
5 4 4 4 3 9 3 8 10 11 4 5 9 10 12 11 6 4 5 6 6 6 5 5 4 5 4 3 3 5 6 7 6 6 7 8 8 7 7 7 8 7 7 7
5 7 6 8 8 7 5 8 6 4 4 6 9 9 11 9 8 7 6 7 7 7 6 4 5 5 5 4 4 6 6 5 6 6 7 8 8 7 7 7 8 7 6 5
3 3 3 4 7 6 6 6 5 6 7 6 8 8 10 10 9 8 7 7 7 6 6 5 5 5 5 5 5 6 6 5 5 7 8 7 7 8 7 6 5 6 6 6
4 2 2 4 7 7 6 5 6 5 4 4 5 7 10 10 8 8 8 8 7 6 5 5 6 6 7 5 5 5 5 4 5 7 7 7 6 7 7 7 6 6 6 6
3 4 4 7 7 4 8 6 3 5 7 8 8 6 6 8 9 8 8 7 6 6 5 5 6 6 6 5 6 5 4 4 5 6 6 6 6 6 6 7 7 7 8 10
Wind_Direction
109 82 238 233 208 213 220 236 278 308 58 68 87 103 85 42 61 77 88 111 117 111 115 103 111 116 114 114 117 122 127 134 132 121 125 128 141 214 330 318 325 331 323 327
31 267 246 244 208 197 194 195 211 86 65 83 97 91 92 38 237 208 184 184 150 139 126 134 147 146 147 147 145 146 155 160 157 149 150 152 149 179 216 304 327 320 320 310
213 246 256 220 194 180 194 183 193 154 91 58 73 19 336 318 329 282 222 206 181 174 179 186 186 192 184 185 188 178 180 170 161 140 106 80 58 29 358 321 305 303 309 307
238 258 249 245 234 173 244 219 140 118 98 33 38 317 304 311 328 290 258 236 229 209 189 195 199 210 216 217 208 199 189 168 135 123 130 149 166 215 242 256 281 299 303 303
266 259 247 247 252 160 140 76 89 95 100 67 29 54 295 335 278 259 242 229 226 218 206 209 212 216 223 220 213 208 185 231 252 147 167 181 233 242 267 276 287 295 302 301
254 256 205 212 30 97 119 76 61 55 68 43 341 58 288 249 226 238 230 228 227 218 213 221 225 219 225 211 199 191 193 247 257 233 219 221 249 265 280 284 289 293 297 299
333 328 294 127 89 43 82 83 36 7 16 276 277 238 255 250 226 219 226 232 231 220 212 217 218 219 220 215 208 190 188 245 268 263 264 256 256 259 261 271 276 284 288 287
330 304 284 193 174 175 154 132 150 197 230 287 333 264 258 251 245 232 227 228 224 213 206 208 214 214 212 205 194 184 191 232 268 272 279 278 264 255 259 262 261 265 264 269
183 261 300 15 127 131 130 120 142 121 105 4 310 300 305 260 239 215 216 212 220 216 206 204 202 189 179 173 181 191 197 235 272 282 290 292 286 273 272 277 271 267 266 272
164 233 302 329 76 47 114 136 100 104 127 288 309 293 258 262 238 217 211 214 219 201 193 188 173 162 163 170 184 149 184 248 278 290 286 289 290 286 282 284 281 277 277 278
130 155 311 8 58 163 114 92 97 101 140 147 240 270 228 222 221 217 222 212 200 192 185 173 153 149 146 66 6 309 301 289 294 296 296 299 295 295 295 286 281 281 282 284
127 117 312 294 292 262 149 153 147 143 187 163 175 265 268 236 227 210 210 197 178 169 156 154 160 161 259 301 304 301 297 291 285 287 291 291 292 296 294 288 285 284 282 282
136 105 52 351 343 347 72 136 133 121 115 149 173 263 303 298 192 194 187 174 149 145 146 151 171 256 281 291 297 296 292 286 289 293 295 297 297 294 289 286 287 287 284 285
115 111 153 194 225 240 268 190 153 134 147 192 220 246 277 237 212 200 179 167 158 166 175 193 234 260 275 284 285 285 287 286 289 292 292 290 289 286 284 285 286 286 285 285
113 154 207 233 244 231 243 242 185 188 190 188 227 226 241 223 210 204 182 168 171 196 217 227 238 255 271 278 280 278 282 287 288 290 288 283 285 286 287 288 287 287 285 285
112 158 172 286 281 257 255 256 209 200 192 209 235 253 246 203 155 169 178 179 198 221 233 243 251 258 261 262 268 278 281 283 285 284 282 285 289 292 291 290 290 290 288 286
142 140 137 259 304 3 280 248 206 203 198 177 204 234 182 175 192 195 194 196 210 225 235 242 248 248 251 254 257 264 270 282 287 284 285 288 290 292 291 293 295 291 288 285
142 132 138 158 45 250 251 261 201 192 228 209 222 225 195 202 201 205 194 197 216 227 233 239 241 245 248 249 256 265 275 283 286 287 288 290 292 293 293 293 291 288 285 284
140 134 124 129 176 279 291 240 166 163 253 216 205 207 165 112 69 300 222 203 212 219 221 226 229 228 240 255 261 272 281 287 289 287 288 291 292 294 295 294 291 289 288 289
76 104 119 135 160 232 252 235 156 107 281 229 187 184 159 127 148 255 228 202 216 221 219 224 227 223 243 256 260 267 279 286 283 283 287 291 291 289 289 288 288 287 286 286
67 76 128 158 200 255 251 168 129 164 242 214 184 180 167 181 201 223 199 195 205 211 220 219 216 225 242 253 251 264 277 275 274 282 289 293 291 288 285 284 284 288 290 292
182 162 176 145 184 258 221 147 180 213 221 183 183 182 185 207 220 222 205 204 206 213 222 213 214 238 253 248 234 260 269 269 280 288 293 295 294 293 295 292 292 291 290 294
195 191 186 187 213 241 218 210 229 188 197 198 189 193 191 200 216 213 211 211 214 217 218 210 210 237 258 247 222 247 263 276 287 293 294 296 300 298 294 291 295 298 295 291
271 153 156 251 270 264 256 246 239 208 211 207 190 184 179 196 208 206 208 213 217 218 215 206 204 229 251 254 242 241 262 277 287 292 297 299 303 304 305 298 290 290 293 294
247 184 200 269 281 305 302 254 234 216 210 201 191 185 188 191 199 199 205 212 213 213 211 201 209 227 245 254 256 257 260 272 284 291 295 299 299 300 305 304 293 286 276 267
235 193 194 237 245 224 263 273 234 205 211 202 190 197 199 191 196 195 205 208 205 210 205 207 219 231 244 249 257 264 261 259 274 290 298 299 302 305 306 309 310 291 275 280